Wind_Speed
25 26 25 26 26 25 25 26 27 30 27 18 14 12 7 8 7 2 6 9 7 7 7 5 7 8 7 12 12 4 2 7 5 2 4 2 3 4 5 7 7 4 4 3 6 10 7 9 10 7 9 9 6 9 11 10 10 7 5 8 10 9 6 7 8 9 9 8 7 11 12 12 13 11 7 8 9 7 6 4 4 3 2 4 5 3 1
25 25 25 25 25 24 23 23 24 26 27 24 20 15 11 13 14 5 6 8 8 8 6 4 5 6 10 10 5 4 6 7 6 3 3 3 3 3 2 2 3 3 4 5 2 4 6 11 10 6 5 5 11 9 7 7 8 7 6 7 8 8 7 6 7 8 7 7 7 9 12 10 9 8 7 11 13 8 4 4 4 2 2 1 4 3 2
25 25 25 25 24 24 23 21 21 22 23 22 20 17 13 12 11 7 9 9 10 11 8 7 3 4 12 12 3 6 11 12 12 7 3 4 2 2 3 3 3 2 1 3 3 3 4 6 6 4 3 7 9 8 6 7 10 7 8 10 7 6 7 6 6 8 6 6 7 5 7 7 5 7 10 12 12 9 5 4 5 2 2 3 5 4 4
25 25 25 25 24 24 23 21 19 18 20 20 18 15 11 9 6 5 8 10 11 15 13 12 6 2 9 7 2 3 6 10 14 6 4 7 1 3 5 5 3 1 3 4 4 3 5 6 4 5 6 5 7 7 4 9 7 3 1 7 5 4 6 7 9 10 8 6 7 3 2 4 6 9 13 13 11 10 8 6 6 2 3 6 7 10 9
25 25 25 25 25 24 23 21 18 16 16 18 18 14 9 8 5 5 3 4 9 11 10 11 8 3 4 3 3 2 2 7 12 4 1 10 4 3 6 5 7 5 6 6 5 4 4 5 5 5 6 2 5 6 3 10 3 7 4 8 5 3 7 9 11 14 13 13 12 9 6 8 11 12 13 14 14 14 12 11 8 3 2 3 9 13 12
24 25 25 25 25 24 23 22 19 15 14 17 18 15 10 7 8 9 10 5 7 5 6 10 11 9 5 2 5 3 5 7 13 4 5 8 12 7 6 7 11 8 1 2 1 7 7 5 7 6 4 5 1 5 7 9 5 3 7 8 5 5 7 9 12 14 15 17 18 15 10 10 13 12 10 12 15 16 15 13 10 6 3 3 10 12 11
24 25 25 25 25 24 24 23 20 16 12 16 17 13 12 12 10 12 14 11 11 10 10 11 11 12 8 3 8 6 5 3 11 5 1 5 13 14 4 6 11 10 2 4 4 4 4 2 5 7 6 9 9 3 5 9 11 8 8 7 6 5 7 10 13 12 12 16 17 16 12 10 9 10 13 16 13 12 14 12 10 9 5 9 13 12 11
23 24 24 25 25 24 24 23 21 19 12 12 16 13 13 13 10 13 18 15 13 13 13 11 9 8 7 5 7 7 3 3 6 8 3 6 4 14 6 4 9 10 10 6 4 8 2 1 3 6 7 7 8 5 4 5 8 10 7 6 8 6 7 9 11 10 10 14 16 15 12 10 10 11 14 14 12 11 11 10 9 7 6 10 13 11 8
22 23 23 24 24 24 24 22 21 21 16 12 14 15 15 13 9 11 14 11 10 12 11 9 7 6 5 3 3 4 6 5 5 7 5 5 7 6 6 5 7 9 13 13 8 7 4 3 6 9 10 8 8 8 7 7 4 8 6 6 7 7 6 8 8 8 8 10 13 16 17 16 14 14 13 11 10 11 10 9 10 10 8 10 11 7 7
21 22 22 23 23 23 23 22 21 20 17 13 13 15 18 17 11 10 10 8 9 10 9 9 8 5 3 2 5 6 6 8 8 6 6 4 2 3 5 7 8 4 6 7 11 9 7 8 11 13 15 15 15 13 11 11 9 4 5 7 7 6 6 7 6 6 7 7 10 13 15 15 12 8 7 10 12 14 11 6 11 14 8 3 2 5 11
20 21 21 21 22 22 22 21 20 20 18 16 15 16 19 19 15 14 11 7 9 11 9 7 4 3 5 6 7 8 8 9 9 5 5 8 9 8 7 7 8 4 3 6 12 12 11 13 16 17 19 19 18 17 15 13 12 9 7 6 6 6 7 6 5 5 6 8 12 12 11 8 3 2 5 11 13 12 8 2 15 22 11 7 11 11 13
19 20 20 20 20 21 20 19 19 18 18 16 13 13 16 17 14 13 10 6 9 11 7 6 6 7 8 9 9 9 10 10 11 8 6 8 8 10 9 5 4 4 7 11 14 14 15 16 17 19 19 18 17 17 15 13 12 12 12 9 6 8 7 6 5 3 3 7 10 9 7 3 4 5 6 11 14 13 7 5 14 20 14 11 17 16 14
19 19 19 19 18 18 18 18 17 16 15 14 12 12 15 16 11 11 11 7 7 9 8 10 12 13 11 10 11 12 13 13 14 13 12 9 8 10 7 3 2 7 11 14 15 14 13 11 11 13 14 14 14 14 15 15 13 12 12 11 8 6 6 6 5 2 0 4 6 6 4 2 2 3 3 6 8 8 8 4 11 18 12 8 14 15 14
19 19 18 18 17 17 17 16 15 14 13 12 12 12 14 15 11 11 11 6 7 13 14 10 10 15 15 14 13 13 14 14 13 11 11 10 9 9 6 3 4 10 12 13 14 11 8 7 7 8 8 8 9 9 11 13 12 12 13 11 9 8 6 5 4 4 3 3 4 4 5 3 4 4 3 4 3 4 4 4 7 12 10 9 12 11 12
17 18 18 18 16 15 15 15 14 13 11 11 11 11 11 15 12 9 10 9 8 11 10 8 11 16 17 15 13 11 10 9 9 9 10 10 9 9 5 6 9 12 13 12 10 7 6 7 6 6 6 6 6 6 7 8 9 12 12 10 9 8 6 3 3 3 3 4 4 2 4 4 5 9 5 4 4 3 4 3 3 8 12 15 14 11 13
16 17 17 17 16 15 14 13 14 13 11 11 9 8 8 15 13 8 8 10 7 6 9 14 16 16 14 13 13 11 8 6 7 9 8 8 10 11 8 10 13 15 14 11 8 6 6 7 7 7 6 4 3 4 6 7 6 8 10 11 12 11 7 4 4 3 2 4 4 2 2 4 3 5 6 5 4 3 3 0 2 8 17 19 16 14 16
16 16 16 16 16 15 13 12 13 12 11 11 8 7 7 12 15 10 9 10 9 10 11 14 16 14 11 9 11 12 11 9 8 7 6 8 10 11 14 15 15 16 14 9 7 6 7 7 7 7 5 2 2 5 7 7 6 3 5 8 12 11 7 5 7 6 5 4 4 3 2 2 3 1 5 8 6 4 1 2 2 9 17 19 18 16 17
16 15 15 15 15 15 14 12 11 11 11 10 7 8 9 10 16 12 8 10 10 9 8 13 15 13 10 10 11 12 12 11 9 7 8 10 9 13 17 16 13 13 11 7 5 6 7 8 5 4 4 5 6 7 6 3 5 6 7 7 8 8 6 5 6 7 6 6 4 4 1 3 4 2 8 7 1 2 4 2 1 11 18 18 18 17 15
16 15 15 14 14 14 13 12 11 10 10 8 6 5 5 7 14 12 8 9 9 12 14 15 13 11 11 12 12 12 13 12 10 8 6 5 9 18 18 12 7 9 10 7 6 6 6 6 5 2 3 3 3 5 6 5 3 3 7 9 6 4 4 5 6 6 7 5 5 3 1 4 5 6 10 7 3 3 2 4 5 7 17 17 15 15 16
16 15 15 14 13 13 13 12 11 10 9 8 5 3 4 3 9 11 9 9 12 17 18 12 8 10 13 13 12 13 13 12 11 9 7 7 15 20 12 4 3 8 8 6 6 5 4 4 4 4 4 3 1 2 5 7 5 3 4 6 4 3 4 6 4 5 6 5 5 3 2 2 5 7 9 4 2 4 8 12 5 7 7 15 14 16 19
14 14 14 14 13 12 12 12 10 9 9 7 3 5 8 6 7 9 9 9 11 14 12 6 7 14 16 14 14 14 12 12 12 12 11 12 15 13 6 4 7 7 5 5 5 4 4 3 2 2 5 5 2 1 3 6 6 4 4 6 5 3 3 4 4 4 3 4 4 2 2 5 7 6 8 7 6 8 16 21 11 11 3 11 14 15 17
12 12 12 13 13 12 12 12 11 9 9 7 3 2 2 2 5 9 11 11 11 15 17 15 15 17 16 14 15 15 14 14 14 12 12 13 12 10 9 11 10 5 5 7 5 3 4 4 2 1 3 5 5 4 4 5 5 5 5 4 5 5 5 4 3 5 6 3 2 5 5 2 10 14 16 16 11 8 12 20 17 10 6 13 17 18 17
12 11 11 12 13 13 12 11 11 9 8 8 7 7 6 5 5 8 12 13 15 19 23 21 17 15 15 11 9 10 11 11 11 10 10 11 12 12 9 7 9 7 6 8 6 5 6 5 3 2 2 2 4 5 6 5 5 6 6 5 6 9 11 8 4 4 8 3 5 2 6 3 14 16 15 14 9 8 12 16 16 12 11 15 19 21 20
12 12 11 10 11 12 12 11 11 10 9 8 8 9 8 5 6 10 12 12 13 15 17 16 13 12 10 7 4 6 8 9 10 9 9 9 10 11 6 6 11 10 8 9 9 8 8 6 5 5 3 1 1 4 5 5 5 7 7 5 6 7 10 8 4 3 6 5 2 2 5 5 13 12 11 9 9 11 13 15 17 16 14 15 19 20 19
14 13 12 11 11 11 11 11 11 10 9 9 8 9 7 4 6 10 10 10 12 12 10 11 12 10 7 7 7 7 7 8 8 8 9 10 12 15 13 10 12 11 11 12 11 9 8 6 5 6 4 1 2 3 2 2 4 8 7 5 6 5 7 5 5 3 5 5 5 9 9 0 9 11 11 10 13 15 14 13 16 19 18 20 24 24 21
16 14 13 13 12 12 10 10 11 10 9 9 9 8 6 4 4 7 9 10 13 12 10 11 13 11 10 12 11 10 9 10 10 11 12 12 13 16 17 16 13 11 11 12 11 10 10 7 4 5 4 2 2 2 2 3 4 5 6 6 9 9 6 5 6 6 8 7 2 5 7 1 5 8 7 6 9 16 18 15 16 19 20 24 27 25 22
17 16 16 15 14 13 11 10 11 10 8 9 10 9 8 7 6 7 7 8 10 9 8 9 13 16 18 18 16 15 15 17 16 15 16 15 14 15 16 15 14 12 11 11 10 10 11 8 5 7 7 3 3 4 5 4 5 5 6 6 9 9 6 5 6 6 6 6 4 5 3 1 4 10 9 9 12 16 17 17 18 19 21 25 27 26 24
19 18 17 16 15 14 12 10 10 10 8 9 9 9 9 9 8 7 7 7 8 9 11 15 20 23 23 20 15 12 13 14 15 15 16 16 16 16 16 15 15 13 11 11 10 9 8 7 7 8 7 3 3 5 3 2 3 5 6 5 6 8 7 6 8 7 6 12 13 11 7 1 1 7 7 5 8 13 16 16 16 17 20 23 25 25 26
19 18 17 16 15 15 13 11 10 9 9 8 7 8 10 10 7 7 9 9 10 12 15 19 19 18 16 15 14 13 12 12 12 14 15 16 16 16 17 16 15 14 13 13 11 9 9 9 11 11 8 4 2 1 1 2 4 6 8 9 11 15 15 15 15 12 10 16 15 5 6 1 2 10 10 5 7 13 16 16 14 15 17 19 20 23 25
18 19 18 16 15 15 14 12 9 8 8 6 4 6 9 5 5 9 9 8 8 10 12 13 12 13 16 20 21 20 19 16 15 16 16 16 16 17 16 16 16 15 15 14 12 11 10 10 12 13 12 10 7 2 2 4 5 5 9 11 12 15 18 18 17 16 13 13 13 5 5 10 12 17 18 14 13 15 17 18 17 16 16 17 18 21 21
17 18 18 16 15 15 14 12 10 8 8 5 4 6 6 2 7 12 13 7 4 7 10 12 14 17 21 22 22 23 22 20 19 18 17 17 17 17 16 16 16 15 15 15 15 13 12 11 11 12 12 13 11 6 4 5 3 4 10 11 10 14 18 18 16 15 13 13 15 10 7 16 20 20 21 22 21 20 21 24 24 21 19 19 21 21 18
17 17 17 16 15 14 14 13 11 9 8 8 10 11 9 3 1 6 10 7 4 6 8 11 12 11 11 12 13 13 14 15 16 17 17 16 16 16 16 17 17 16 16 16 14 12 13 13 12 13 13 12 8 5 6 6 4 4 11 13 11 12 15 14 16 17 14 15 18 12 9 19 23 20 20 23 24 24 26 28 27 25 24 24 25 23 20
17 17 17 16 15 14 14 13 13 11 10 11 13 14 14 11 6 3 4 5 6 7 8 9 8 6 7 12 15 12 9 11 13 15 15 15 15 15 15 16 17 17 17 16 13 12 13 13 13 12 13 13 10 6 6 7 7 9 14 14 9 8 9 13 18 19 16 18 19 14 15 20 21 20 22 24 23 23 27 29 29 30 29 27 27 28 25
18 16 16 16 16 15 14 14 13 12 10 11 12 11 10 10 11 9 8 6 6 7 9 8 7 6 8 12 14 13 12 12 12 12 12 13 14 15 14 14 16 15 15 16 15 13 13 13 13 11 10 12 13 8 6 9 12 15 16 13 8 8 10 13 18 19 19 21 18 12 15 17 18 21 25 25 23 24 27 30 31 31 29 28 28 28 27
18 16 16 16 16 15 14 14 14 12 10 11 12 11 9 9 11 11 10 8 7 8 9 9 8 7 7 8 9 8 11 14 13 12 11 12 14 15 14 13 12 12 12 14 15 13 10 11 12 10 9 10 11 8 6 10 14 16 14 10 7 9 8 8 12 17 19 20 16 12 14 16 19 25 27 25 24 26 27 29 30 29 27 27 27 26 26
16 16 15 16 16 15 15 15 16 13 10 9 10 9 9 11 12 11 10 10 11 10 9 9 9 7 6 7 7 6 6 11 13 12 12 11 11 14 15 12 9 10 12 13 12 10 10 12 11 9 8 9 9 8 10 12 14 15 13 10 8 8 5 4 8 12 11 12 10 14 19 18 19 25 27 26 27 28 28 28 27 25 25 26 26 25 25
16 15 15 16 18 17 16 18 19 17 12 10 10 10 9 9 9 8 9 11 13 14 12 10 9 9 10 10 9 9 8 6 8 9 12 12 10 11 13 10 7 9 11 10 9 10 12 14 12 8 8 9 10 11 14 15 15 14 12 9 9 7 2 3 12 18 17 14 12 19 23 19 20 28 30 24 21 23 25 25 24 24 24 25 24 24 25
17 17 17 19 19 17 16 17 20 19 15 12 10 9 9 8 7 8 9 10 11 15 15 12 11 14 16 14 11 11 10 8 9 7 8 9 8 8 11 9 7 7 7 7 10 13 12 10 8 7 9 11 14 16 17 17 17 16 11 8 9 5 0 6 17 24 25 20 14 16 18 16 22 33 35 24 17 18 20 19 21 23 23 23 24 25 26
18 19 21 21 20 17 14 15 17 19 17 13 9 8 8 7 6 7 9 9 9 13 15 14 15 17 16 13 13 15 14 11 10 8 4 3 4 5 7 6 7 8 7 6 9 13 10 6 6 8 9 10 13 18 19 16 15 13 9 7 6 4 1 7 15 15 17 18 14 16 19 17 16 21 26 24 20 20 20 19 20 23 24 24 26 26 26
22 23 23 22 21 18 14 13 15 18 16 12 9 7 6 7 7 7 7 7 7 10 13 14 16 19 19 16 14 14 14 11 9 8 6 5 5 5 5 5 4 6 7 6 8 10 8 6 7 8 8 8 12 18 20 16 12 11 11 10 7 1 1 6 12 9 8 13 14 17 23 23 17 16 20 21 20 21 20 19 20 24 26 26 26 26 25
26 26 24 22 22 19 14 11 12 14 12 9 7 5 4 6 8 8 7 6 5 8 13 14 14 16 19 19 17 15 15 14 13 12 9 6 5 6 6 5 5 5 5 6 8 8 6 6 7 7 7 10 14 19 20 16 12 12 13 14 9 2 1 5 9 8 5 11 16 19 23 26 26 23 21 22 22 21 19 19 21 24 26 26 25 25 25
27 26 23 21 20 19 16 12 11 10 6 4 4 4 4 6 7 7 8 7 6 7 11 15 15 14 16 18 19 17 15 14 13 11 8 6 5 6 5 4 4 5 5 6 7 7 6 7 8 7 7 12 16 19 19 18 18 18 17 15 11 6 2 2 6 9 9 12 19 22 22 27 31 27 22 23 22 20 19 21 23 25 26 26 25 24 25
24 24 23 21 20 18 14 11 9 7 4 2 3 3 4 6 6 6 7 9 10 10 11 13 15 15 14 16 17 16 14 13 13 10 8 6 5 4 4 4 5 5 6 7 7 7 7 7 7 6 9 13 18 21 20 19 20 21 20 16 13 9 4 2 5 10 11 12 19 23 25 28 29 26 22 22 21 20 20 23 24 24 26 26 25 24 25
19 19 19 17 15 14 10 6 6 6 4 4 5 5 6 8 8 6 6 7 10 12 13 13 13 11 11 12 14 13 12 11 11 9 8 7 6 4 4 5 5 5 6 6 6 7 7 7 6 7 9 13 17 23 26 24 22 22 22 20 16 12 7 3 6 12 13 11 14 22 27 28 28 26 24 22 20 20 22 23 23 24 26 26 25 25 27
18 18 15 9 6 7 6 4 4 6 6 5 6 7 7 8 8 7 7 8 9 10 12 14 13 11 9 9 10 10 10 10 9 7 6 6 5 5 5 4 4 4 5 6 6 7 7 7 6 8 11 13 13 17 23 24 23 23 22 19 15 12 9 4 7 13 15 12 13 20 26 28 28 27 25 22 19 19 21 22 23 24 26 26 26 27 29
17 16 12 5 3 6 6 3 3 5 6 7 10 11 11 11 11 10 9 10 12 12 12 12 13 12 11 9 8 9 10 9 7 6 7 6 5 5 6 5 5 5 5 7 8 8 7 8 7 8 13 16 14 13 17 21 21 22 22 19 14 11 9 6 7 12 13 12 14 20 26 28 28 26 25 24 22 21 21 23 24 25 26 27 28 29 30
12 10 8 3 2 5 6 5 6 9 11 13 16 16 15 15 15 13 10 10 12 11 10 10 10 11 11 11 9 8 9 8 7 6 7 6 4 4 5 6 5 5 6 8 8 6 6 9 11 9 11 14 14 13 14 15 16 18 20 18 15 13 10 7 8 12 14 14 15 18 23 26 28 27 26 25 25 23 24 25 26 26 27 28 29 30 30
10 8 6 3 2 5 8 9 11 14 15 15 15 17 18 19 17 13 10 11 11 10 10 10 9 8 9 11 9 6 5 7 7 7 7 6 4 4 5 6 6 6 7 7 7 6 7 8 9 10 7 10 15 15 14 12 12 13 16 16 15 16 13 9 8 12 15 16 16 18 20 23 25 26 25 25 25 25 26 27 27 28 28 29 30 31 31
10 8 6 5 5 7 11 14 15 15 15 15 16 20 23 23 18 13 11 11 11 11 11 10 8 6 5 7 8 6 5 5 5 5 6 7 6 5 6 7 8 8 7 5 6 9 9 6 12 18 15 7 7 13 16 15 13 14 16 17 17 16 15 12 10 11 14 15 16 17 19 20 22 24 26 27 27 28 28 28 29 30 30 30 31 32 32
7 7 8 8 8 6 7 10 11 11 12 14 17 20 21 19 15 12 10 11 12 12 11 10 9 7 4 4 5 5 5 6 5 4 6 8 6 5 7 9 8 7 7 7 9 11 10 5 9 13 15 14 10 4 6 12 17 19 18 17 17 15 14 13 10 9 11 14 15 15 16 19 21 25 28 30 30 30 30 31 32 31 31 30 31 32 32
5 7 10 13 13 11 8 7 7 8 11 13 15 17 17 15 13 11 10 10 12 11 10 9 8 6 4 5 5 4 3 5 6 5 7 7 6 6 9 9 6 6 8 9 11 14 12 5 4 8 11 13 13 12 11 5 10 17 19 19 19 17 15 14 13 12 12 13 14 16 21 28 29 28 29 30 31 31 31 32 32 32 31 31 32 33 32
7 8 11 14 16 16 15 13 10 11 14 15 15 14 15 15 13 10 10 11 11 11 10 9 9 6 5 6 6 4 3 4 6 7 8 7 6 7 9 8 7 10 13 11 9 12 12 6 1 5 9 11 11 12 13 12 7 7 12 16 20 21 19 17 16 15 15 15 17 20 25 28 29 29 29 29 30 32 33 33 32 31 30 30 32 32 32
Wind_Direction
350 352 353 354 355 355 358 358 353 356 2 5 360 354 334 285 299 29 178 208 206 225 257 263 252 254 239 238 252 278 227 245 272 246 200 226 263 212 210 258 272 262 298 318 191 186 196 232 224 185 197 204 142 120 138 178 214 201 199 221 203 203 243 259 262 275 277 267 230 207 208 224 242 244 244 262 261 251 261 277 278 269 183 117 96 130 223
352 353 353 354 356 357 359 360 358 358 359 2 360 353 339 308 302 291 193 198 211 229 256 268 252 296 299 266 257 325 294 274 282 263 218 229 250 258 252 269 287 291 313 325 261 194 193 213 218 203 195 142 110 121 145 173 210 208 197 206 185 182 217 238 255 267 264 272 267 219 197 207 239 242 230 245 257 257 257 267 269 290 307 83 108 115 116
354 354 354 355 357 359 360 1 3 359 357 0 355 345 335 311 291 254 209 196 215 237 266 292 289 328 293 279 341 344 307 299 292 282 259 237 205 8 304 268 254 222 248 298 305 316 273 228 237 262 204 142 140 149 153 193 223 215 193 203 197 189 204 204 231 256 238 237 264 234 182 191 227 255 260 258 268 286 296 286 279 287 349 40 94 104 104
355 355 355 356 357 360 1 1 4 4 1 359 353 345 331 305 294 255 216 197 216 239 254 266 258 262 277 277 7 316 300 298 281 271 300 285 66 72 259 259 293 358 35 314 265 242 256 254 261 245 218 173 139 118 140 216 228 40 74 239 249 231 223 212 218 245 260 262 279 292 181 208 214 226 249 260 270 274 261 256 262 233 82 68 111 141 147
356 355 356 356 357 360 2 1 3 9 10 4 355 344 316 292 314 347 335 234 234 238 247 260 261 276 303 337 328 271 72 306 279 163 189 285 356 29 281 336 6 3 35 1 320 343 316 298 314 272 254 337 83 100 226 232 228 20 318 255 270 259 238 234 226 238 256 264 264 257 231 237 244 232 224 226 238 254 258 258 260 248 101 112 143 151 153
355 356 356 356 357 359 2 3 2 8 23 21 3 341 327 324 319 343 4 331 267 281 315 307 303 302 313 351 266 235 103 300 285 159 164 306 356 339 282 9 351 308 40 131 300 356 351 338 343 323 302 324 308 164 199 217 208 282 258 233 245 267 251 246 239 232 238 250 258 264 264 254 255 263 261 240 224 224 237 249 254 258 271 143 145 153 156
354 356 356 357 358 359 2 4 3 6 27 37 21 356 352 357 331 331 352 332 300 308 308 294 288 287 290 248 246 240 128 236 273 270 141 10 342 310 288 38 325 296 258 167 151 41 345 321 352 339 332 322 306 234 191 208 196 202 240 231 214 249 264 255 255 246 233 241 252 263 276 275 259 261 272 273 261 235 237 253 254 235 193 133 139 158 169
352 355 356 357 357 358 1 4 5 4 14 39 36 20 5 2 343 330 335 324 306 301 290 281 279 272 258 236 251 263 239 226 266 290 345 101 278 295 332 14 313 341 12 355 95 90 45 301 341 319 315 318 309 302 290 246 188 182 230 238 185 200 252 253 260 263 241 235 239 241 249 262 265 256 251 260 276 275 269 283 291 266 203 165 164 165 161
349 352 355 356 356 358 0 3 6 6 9 31 37 22 4 354 339 324 322 316 312 308 296 284 281 270 247 243 315 290 276 317 327 296 313 122 172 271 327 313 312 16 19 348 357 54 47 303 289 293 295 296 286 282 298 304 243 179 207 238 192 188 238 250 252 261 251 237 234 232 228 227 238 255 262 265 273 277 271 267 275 270 241 222 211 172 122
347 349 353 354 355 359 359 1 6 7 11 28 35 16 358 352 349 334 318 300 292 295 287 272 271 292 317 334 338 317 305 324 322 305 319 341 54 19 343 316 314 10 49 347 326 342 346 305 292 289 285 283 277 274 282 291 286 236 202 227 211 193 228 247 246 255 266 260 251 247 236 226 227 248 284 297 283 268 260 280 316 311 290 259 256 125 113
345 346 350 353 353 356 359 1 4 6 11 24 31 15 356 352 351 337 324 304 285 281 272 268 281 339 335 329 327 315 307 308 312 331 334 317 331 344 322 315 324 341 17 314 302 309 306 288 279 272 268 270 271 272 270 266 267 267 253 230 204 205 230 253 256 251 261 265 264 261 244 234 257 16 9 351 327 290 255 65 16 355 352 78 95 112 123
341 343 346 350 351 353 357 360 1 5 12 17 26 17 353 348 349 335 326 314 294 290 284 301 341 357 332 328 332 315 309 313 312 310 293 285 294 293 292 325 350 328 318 305 299 299 289 277 269 261 256 256 256 259 261 254 244 248 255 252 224 204 215 248 260 253 295 289 269 255 241 256 11 20 20 8 355 346 349 67 56 35 30 79 104 116 124
337 339 341 346 349 348 352 358 359 2 7 11 26 22 349 344 358 349 333 315 293 309 321 321 341 0 352 338 332 320 316 312 296 282 278 278 272 272 286 10 336 301 311 305 296 290 283 279 275 267 261 257 251 248 250 249 237 225 231 247 254 231 214 240 249 198 44 303 271 255 266 296 318 316 8 14 355 357 359 12 78 76 72 91 100 102 110
331 334 336 340 344 344 347 354 356 358 1 4 21 24 350 342 2 1 341 326 301 313 317 316 341 357 350 336 329 323 318 308 291 275 272 272 267 270 292 354 321 308 311 300 288 284 282 282 275 267 261 255 253 250 248 247 239 223 217 222 244 262 256 248 247 216 196 245 257 282 313 291 267 301 25 56 13 27 41 21 74 90 101 118 112 103 111
327 329 331 333 338 342 343 347 350 355 357 355 12 30 357 336 349 1 341 329 309 307 324 349 348 340 334 328 322 318 315 316 319 314 302 291 271 259 280 351 339 316 305 293 286 284 285 285 279 269 262 257 266 276 268 257 239 223 219 213 214 234 255 269 270 248 227 242 238 272 322 296 308 336 355 129 130 84 72 59 80 90 93 109 126 137 137
324 324 325 327 331 336 339 342 344 347 354 353 7 43 7 331 338 2 341 323 307 299 338 356 344 330 323 320 322 329 335 341 341 328 314 297 275 268 299 346 336 317 307 296 284 280 279 276 273 268 260 254 297 302 286 283 260 214 214 225 218 212 212 229 256 248 233 261 249 226 259 222 219 328 358 75 70 39 63 95 177 122 114 124 140 148 148
326 323 321 320 324 329 334 338 339 341 352 355 359 53 40 335 332 355 350 323 301 284 310 349 348 334 333 333 336 347 348 336 332 333 317 300 300 315 334 338 327 316 309 295 280 280 276 269 269 273 274 296 332 284 263 276 298 268 230 238 236 226 207 211 242 243 226 241 250 245 250 157 147 19 59 62 11 349 127 240 253 126 131 146 158 156 148
328 326 323 318 317 322 327 333 338 338 348 360 12 61 61 335 321 341 347 325 307 277 307 2 355 332 339 341 322 326 332 322 319 326 304 289 315 346 339 326 322 316 303 288 279 281 277 275 271 275 307 337 333 302 285 312 342 337 333 314 272 249 232 223 246 256 240 228 237 260 251 138 161 145 104 106 256 222 173 253 43 130 149 163 166 158 144
325 324 325 320 314 316 321 327 336 334 340 358 12 63 74 330 325 347 353 332 315 285 295 330 336 320 333 335 316 318 329 322 319 325 299 288 349 347 323 301 317 326 309 294 285 276 274 281 290 294 293 311 327 314 316 337 344 319 320 320 309 281 266 249 240 254 258 239 226 237 157 134 164 138 115 125 199 195 138 26 29 159 165 160 162 159 150
319 320 323 321 315 314 314 320 329 330 334 352 5 68 90 5 338 352 354 336 320 300 297 312 333 328 328 323 316 322 326 323 331 339 318 319 348 344 319 274 353 342 321 309 299 287 285 303 339 337 297 291 353 330 315 315 298 280 317 320 329 358 320 291 271 267 271 265 250 229 141 162 199 155 128 129 205 162 102 79 35 271 173 146 170 176 160
315 318 321 321 319 316 310 311 320 323 326 338 14 88 76 40 345 334 334 325 311 300 292 292 310 310 306 300 297 298 299 302 314 325 318 316 332 339 321 304 328 333 338 333 313 297 302 315 20 356 288 291 321 327 330 320 292 290 358 341 319 332 340 325 338 341 307 284 295 338 107 171 186 143 102 89 110 128 117 120 157 246 217 143 166 162 147
308 314 318 320 321 319 312 307 310 316 320 320 296 201 94 21 315 311 319 314 294 282 285 296 304 297 291 290 285 276 274 279 285 294 302 305 311 310 296 301 314 335 11 349 317 294 316 316 329 343 303 307 323 326 327 315 285 291 332 323 298 320 349 346 334 335 321 307 43 4 343 118 117 103 102 110 126 146 138 140 165 203 163 134 141 137 137
298 301 308 316 320 321 318 310 307 310 312 309 296 278 268 273 292 314 321 313 297 288 292 298 297 289 292 297 284 265 265 271 274 276 277 283 294 292 288 322 344 341 5 16 353 327 332 330 318 318 309 299 315 309 292 275 273 295 303 281 281 323 345 343 329 335 325 309 144 202 293 102 107 105 111 121 146 179 166 160 170 178 155 141 145 147 147
287 290 295 302 310 317 320 314 308 307 307 302 292 285 285 303 336 338 328 315 308 308 304 294 278 278 302 324 305 274 272 268 271 271 260 260 276 272 270 21 2 325 329 1 349 314 307 311 296 285 288 276 261 272 274 278 301 316 311 281 278 330 359 349 326 342 325 314 80 321 290 128 121 129 137 150 189 193 176 175 177 172 158 146 150 154 147
278 282 287 292 297 307 316 316 307 302 302 300 292 285 285 311 342 331 322 316 313 312 309 299 285 281 309 322 297 288 291 277 270 270 258 251 254 259 272 318 332 314 312 326 322 301 292 293 279 272 274 223 224 266 276 277 308 322 323 296 289 335 3 331 298 287 269 278 2 348 317 242 135 149 157 177 200 189 176 177 170 161 154 147 147 148 143
273 273 276 282 287 293 305 315 312 303 298 294 287 277 269 270 297 302 302 310 308 289 267 274 280 287 317 316 287 270 281 281 273 270 265 256 252 258 271 288 296 295 296 297 294 288 285 284 282 282 274 194 188 267 249 218 255 288 297 298 307 313 306 296 314 312 276 266 332 336 309 286 154 172 166 160 175 170 164 161 153 150 150 146 143 144 145
269 269 270 272 275 280 290 306 310 306 298 290 283 275 268 267 274 283 287 298 302 284 262 276 292 302 312 304 279 264 274 276 268 264 261 258 256 259 264 271 277 282 284 281 275 270 266 264 260 260 259 238 209 220 223 238 259 262 265 285 298 292 281 300 312 292 271 277 263 228 227 111 183 204 189 154 152 155 153 149 146 147 149 146 145 146 151
266 266 267 266 264 267 274 288 303 309 302 288 280 277 277 273 266 265 267 271 281 287 291 298 302 302 301 297 287 280 278 270 261 258 256 254 254 253 255 260 264 265 266 270 272 266 259 263 266 256 252 254 241 229 234 267 265 257 256 259 270 271 264 267 268 259 284 303 280 226 191 92 193 198 195 170 148 143 140 144 152 154 151 148 146 144 147
264 263 262 260 258 258 261 271 290 305 300 286 283 290 294 292 278 260 257 257 264 277 289 295 295 289 288 292 295 288 279 272 267 261 256 253 251 249 249 251 252 255 257 259 264 268 264 264 269 267 261 261 265 259 299 278 250 252 256 252 263 270 260 245 248 255 277 300 298 240 173 231 161 152 152 152 148 146 147 153 161 160 151 145 143 143 148
266 261 257 254 250 248 252 260 275 293 291 279 284 296 291 270 203 212 227 239 254 269 283 292 290 287 292 294 286 274 268 268 265 260 256 253 250 247 247 246 245 246 250 251 253 260 265 266 266 263 258 258 260 247 227 249 251 259 259 250 251 263 261 251 253 258 263 288 309 312 196 203 182 156 152 157 159 161 165 165 161 157 152 148 146 148 153
269 263 256 249 241 239 243 249 259 274 273 246 229 265 276 206 168 197 207 206 234 266 274 279 283 288 293 288 276 265 260 256 253 253 253 252 249 245 243 244 243 239 239 244 247 248 253 259 263 264 262 258 253 245 236 240 244 277 276 264 247 251 259 261 262 265 268 276 287 287 206 179 172 161 156 155 154 163 172 166 157 157 159 153 148 149 153
268 264 254 243 233 231 234 239 249 258 251 229 222 231 239 249 138 190 200 208 247 271 272 277 283 287 288 289 285 272 255 245 245 246 244 243 245 244 238 237 240 239 237 241 245 245 244 246 248 254 258 257 254 256 247 234 214 236 255 259 254 248 256 269 273 270 258 240 240 238 176 165 168 164 158 155 156 164 167 157 153 161 167 158 149 152 157
262 262 253 238 228 226 227 232 242 249 247 243 238 229 226 240 266 255 214 236 272 276 269 275 284 278 277 299 310 303 266 242 238 237 237 235 233 236 236 233 235 238 236 235 240 243 243 246 249 249 247 243 240 246 251 240 227 224 231 242 264 272 270 275 270 262 254 244 234 209 170 168 168 159 157 160 165 170 162 152 155 167 171 163 156 156 157
258 257 248 233 223 223 225 227 234 241 245 248 249 244 240 250 265 273 266 262 272 269 258 260 276 279 276 289 296 284 260 249 237 227 232 231 223 227 236 231 226 231 229 226 232 239 237 240 249 255 251 236 225 225 243 238 228 229 230 233 258 288 289 280 271 270 280 279 260 209 174 171 164 155 156 162 171 175 164 154 158 169 169 162 157 152 148
253 248 239 227 220 220 222 224 228 234 240 246 252 256 255 250 255 264 265 255 251 256 252 244 249 268 285 287 281 261 243 241 239 235 235 227 215 219 234 234 223 223 223 221 228 236 234 230 235 242 245 237 227 223 231 226 225 233 234 227 244 270 270 263 270 280 287 281 258 205 180 180 168 158 158 166 177 181 169 158 163 171 165 155 150 146 143
240 233 228 221 217 218 221 222 221 219 223 238 246 249 249 250 253 259 256 244 238 247 265 265 251 251 262 263 273 294 273 242 237 242 247 242 219 210 221 235 234 224 223 224 227 232 229 226 231 237 234 232 232 228 223 221 225 230 226 219 238 251 228 215 260 269 270 268 236 177 171 186 179 161 161 174 184 183 172 165 168 168 155 145 145 145 143
224 219 217 213 213 217 222 222 218 214 212 221 229 235 244 251 252 247 241 238 233 234 248 264 261 261 268 267 276 304 306 266 246 244 241 243 240 215 212 228 243 229 225 228 230 232 229 224 227 239 237 231 237 237 230 228 230 228 223 225 234 229 171 237 241 223 210 217 204 167 168 186 180 161 162 175 185 179 173 169 165 156 146 144 145 143 140
214 212 209 206 208 212 219 222 218 214 210 207 213 232 243 239 236 230 224 226 228 226 230 241 249 257 268 273 274 282 295 312 325 304 242 232 249 233 217 227 240 232 237 240 222 221 229 228 224 236 241 237 241 243 239 232 226 223 224 230 229 217 275 272 240 213 191 183 171 151 152 164 162 157 159 166 173 176 178 173 161 152 148 147 146 143 140
206 204 203 204 206 209 219 223 216 209 205 202 208 230 232 217 220 227 213 207 215 218 219 229 238 243 251 261 268 273 280 293 310 310 284 276 296 253 229 241 235 222 241 258 212 202 215 231 223 227 235 231 231 236 237 229 219 216 222 229 220 187 151 263 254 227 183 162 145 133 139 148 153 154 154 155 164 179 184 175 160 153 152 150 147 144 142
202 200 200 203 206 207 212 214 203 196 196 197 208 229 227 210 215 225 214 210 220 218 215 224 232 232 235 244 256 264 265 263 273 288 293 307 311 286 277 299 280 230 236 244 209 197 211 232 225 225 231 221 215 223 228 223 210 207 221 236 239 197 127 258 264 253 174 154 146 140 144 150 152 151 154 162 175 183 179 167 154 152 154 153 149 146 146
199 197 197 201 205 204 197 185 178 181 188 195 206 221 225 214 218 228 228 226 230 223 220 224 227 225 226 231 239 249 253 254 265 279 279 271 275 274 274 293 302 277 254 238 222 216 223 231 229 229 225 212 209 213 215 209 201 205 218 229 234 232 15 270 267 264 208 164 151 143 146 153 155 157 169 184 187 178 166 157 152 154 157 156 151 151 154
199 199 198 198 197 190 177 161 155 164 183 205 213 222 229 220 217 223 229 235 244 236 225 223 226 228 226 224 226 233 242 245 249 260 265 257 251 253 256 262 269 262 254 248 243 234 224 227 237 240 223 208 207 210 208 202 198 203 212 221 224 219 219 266 256 252 232 184 158 147 150 160 166 171 181 185 176 163 156 157 158 159 160 158 157 159 161
201 199 192 183 175 170 167 164 163 165 177 203 198 201 218 218 213 215 223 229 237 242 236 227 225 227 229 226 221 219 224 233 238 242 249 248 239 243 254 249 238 249 274 280 263 240 230 231 232 233 228 216 208 209 213 210 200 198 208 222 228 225 230 272 252 240 230 196 168 158 158 165 173 181 188 185 175 167 164 163 161 161 162 163 164 165 163
190 181 170 164 161 161 164 171 174 173 185 201 195 197 208 212 212 218 223 221 223 231 236 237 232 225 225 227 223 216 213 221 228 232 238 241 236 235 244 243 237 248 272 280 266 250 250 248 230 225 239 234 213 205 209 210 201 198 209 223 227 222 220 239 229 222 221 207 177 166 163 166 173 180 184 182 178 175 173 169 165 165 166 167 168 167 164
173 156 145 137 144 160 167 171 182 198 211 208 197 205 219 221 219 225 228 226 228 232 232 231 233 235 235 231 229 224 216 214 216 222 230 234 232 228 233 256 273 261 247 252 257 254 255 257 236 213 228 244 234 209 202 200 195 196 206 215 218 219 222 223 212 212 215 213 191 175 170 170 173 177 179 179 177 177 179 178 175 172 171 171 171 169 167
164 149 141 123 136 179 189 189 182 198 212 212 210 216 226 231 235 237 232 227 234 243 239 229 228 233 234 231 229 226 219 214 215 220 222 227 236 234 231 243 262 257 240 242 246 241 247 265 259 218 213 227 229 206 190 187 187 193 201 205 207 214 228 236 220 214 216 211 194 180 175 174 175 176 176 177 179 181 183 184 183 178 176 176 176 173 170
153 150 153 144 151 192 211 220 211 209 214 216 218 224 233 239 241 243 238 229 233 242 246 243 241 241 239 239 241 238 227 223 220 218 219 224 232 233 230 233 236 234 233 238 240 239 244 257 263 249 220 207 194 177 175 182 184 188 196 200 200 203 215 231 227 219 219 215 200 184 176 175 177 178 177 178 181 183 183 184 184 183 181 182 181 176 173
159 163 174 181 178 194 209 219 221 222 223 222 225 235 245 249 248 243 234 233 237 240 238 238 241 245 244 244 246 246 240 233 226 217 216 225 230 222 223 228 230 229 231 234 241 245 242 256 291 312 283 215 194 182 181 189 197 200 205 211 213 211 214 223 223 218 218 216 203 188 178 175 176 181 183 183 183 184 186 184 182 181 183 184 182 179 176
172 180 199 225 226 213 216 222 226 228 229 230 232 234 236 239 241 235 225 225 232 236 237 237 240 245 247 242 239 239 236 235 232 221 216 221 226 220 215 219 225 228 227 226 237 242 245 283 341 352 350 325 236 204 193 195 206 211 212 217 221 220 218 219 223 228 228 222 207 195 188 180 176 180 185 186 184 185 186 183 180 181 185 188 184 181 180
201 215 231 239 233 221 220 225 229 231 232 233 235 235 233 232 231 227 220 219 224 227 227 226 228 235 245 242 239 240 229 219 223 232 225 220 221 227 227 225 226 227 225 227 232 233 238 282 333 344 353 360 354 318 216 206 206 206 209 220 227 223 216 212 213 221 226 220 212 207 205 199 190 184 183 184 184 184 183 182 181 184 189 191 188 184 183
230 238 244 243 241 242 246 245 249 253 245 238 240 245 246 241 232 224 222 223 224 223 218 212 212 219 231 231 231 240 230 213 215 230 235 229 225 228 229 228 226 230 235 235 229 224 223 241 330 342 351 360 0 356 350 315 223 211 217 228 231 227 220 215 211 208 207 204 199 200 207 209 204 192 182 179 179 178 177 179 182 186 190 190 188 186 186
226 237 246 246 246 250 255 256 260 266 262 251 242 240 243 243 237 228 226 230 231 229 227 225 220 214 216 224 226 232 239 225 217 221 228 229 228 233 238 241 241 241 245 250 241 227 224 225 339 356 350 350 348 346 349 348 323 251 236 236 234 230 225 220 213 209 206 200 193 196 207 211 204 189 179 177 177 177 177 179 182 186 189 189 188 189 190
Height
1544 1542 1539 1536 1534 1531 1529 1526 1522 1518 1514 1512 1510 1510 1509 1508 1504 1501 1502 1502 1502 1505 1502 1496 1493 1487 1483 1482 1478 1474 1475 1473 1470 1467 1467 1467 1465 1464 1465 1463 1460 1458 1455 1455 1459 1462 1468 1467 1459 1459 1460 1455 1452 1449 1452 1457 1456 1460 1469 1467 1462 1467 1477 1484 1483 1471 1458 1447 1442 1442 1445 1453 1461 1460 1458 1461 1463 1464 1471 1481 1484 1489 1497 1500 1513 1530 1521
1544 1542 1540 1537 1534 1532 1530 1528 1525 1521 1518 1515 1512 1512 1511 1509 1505 1502 1502 1501 1502 1503 1501 1497 1494 1488 1483 1479 1477 1476 1475 1472 1470 1468 1468 1467 1466 1466 1465 1462 1462 1460 1455 1457 1459 1460 1466 1466 1456 1454 1458 1455 1452 1452 1455 1458 1458 1460 1465 1463 1462 1471 1480 1486 1493 1491 1481 1473 1467 1459 1454 1458 1464 1461 1458 1460 1457 1457 1464 1468 1474 1490 1497 1498 1514 1530 1518
1545 1542 1540 1537 1535 1533 1530 1529 1526 1524 1521 1518 1516 1514 1512 1509 1505 1501 1500 1501 1501 1500 1496 1492 1491 1492 1491 1485 1481 1483 1480 1475 1472 1468 1467 1465 1464 1470 1471 1463 1461 1460 1458 1462 1462 1461 1465 1465 1459 1457 1458 1456 1453 1453 1457 1459 1457 1457 1458 1455 1458 1469 1476 1482 1496 1503 1500 1496 1487 1472 1463 1463 1464 1463 1460 1458 1456 1459 1469 1475 1483 1497 1498 1495 1509 1521 1514
1545 1542 1540 1538 1535 1534 1531 1529 1528 1525 1523 1520 1518 1516 1514 1511 1506 1500 1496 1497 1498 1496 1493 1490 1489 1492 1494 1490 1486 1488 1488 1482 1475 1470 1470 1466 1464 1472 1473 1464 1463 1464 1466 1471 1471 1465 1464 1464 1463 1462 1460 1455 1451 1453 1458 1459 1456 1457 1457 1455 1458 1467 1471 1473 1484 1490 1487 1485 1475 1459 1457 1465 1470 1469 1466 1464 1463 1463 1470 1480 1488 1491 1494 1501 1507 1507 1508
1546 1543 1541 1539 1536 1534 1532 1530 1528 1526 1525 1522 1519 1517 1515 1512 1507 1502 1501 1500 1496 1492 1490 1488 1486 1487 1491 1493 1491 1491 1495 1493 1482 1475 1476 1472 1468 1473 1472 1468 1474 1477 1476 1480 1480 1474 1470 1469 1467 1464 1461 1456 1453 1456 1459 1458 1458 1459 1459 1459 1462 1471 1476 1472 1474 1478 1473 1469 1464 1454 1455 1465 1468 1466 1465 1465 1465 1465 1471 1478 1476 1474 1489 1508 1504 1495 1503
1546 1544 1542 1539 1537 1535 1532 1531 1529 1527 1526 1524 1521 1519 1517 1514 1510 1506 1508 1507 1499 1495 1495 1492 1489 1486 1487 1492 1492 1491 1500 1507 1496 1482 1478 1476 1474 1477 1476 1475 1480 1481 1478 1480 1484 1482 1480 1479 1475 1470 1467 1464 1461 1461 1460 1458 1460 1461 1461 1461 1463 1474 1480 1472 1470 1473 1469 1464 1461 1455 1455 1460 1461 1461 1461 1461 1462 1465 1469 1470 1465 1466 1484 1500 1496 1493 1501
1547 1544 1542 1540 1538 1536 1533 1532 1530 1528 1527 1525 1524 1523 1520 1518 1515 1510 1510 1509 1503 1500 1499 1495 1493 1490 1488 1491 1491 1489 1498 1508 1499 1481 1478 1484 1485 1482 1483 1482 1481 1479 1473 1473 1482 1487 1489 1488 1484 1477 1475 1473 1469 1466 1464 1460 1457 1460 1463 1461 1462 1474 1480 1472 1468 1470 1467 1464 1462 1458 1458 1460 1460 1462 1463 1460 1458 1459 1461 1462 1459 1461 1473 1483 1486 1491 1494
1547 1545 1543 1541 1539 1537 1534 1533 1531 1529 1528 1526 1526 1527 1524 1524 1523 1517 1514 1511 1505 1502 1498 1494 1494 1491 1488 1490 1488 1485 1490 1495 1490 1479 1480 1493 1495 1485 1484 1484 1480 1478 1477 1475 1480 1483 1485 1488 1486 1480 1480 1480 1477 1474 1469 1461 1456 1460 1465 1463 1462 1474 1480 1471 1468 1473 1470 1463 1461 1460 1463 1466 1466 1466 1462 1458 1458 1459 1460 1463 1461 1461 1470 1475 1480 1489 1490
1547 1545 1544 1542 1540 1538 1536 1534 1532 1530 1529 1528 1528 1529 1528 1528 1528 1525 1521 1515 1507 1504 1499 1494 1494 1492 1488 1489 1488 1487 1487 1486 1486 1481 1479 1487 1491 1485 1484 1483 1478 1479 1483 1484 1482 1477 1478 1482 1480 1476 1478 1479 1478 1473 1466 1461 1460 1462 1466 1466 1463 1471 1478 1470 1470 1480 1476 1462 1460 1463 1461 1463 1469 1468 1463 1459 1463 1464 1462 1461 1462 1462 1467 1471 1476 1487 1490
1547 1545 1544 1543 1541 1539 1537 1535 1534 1532 1531 1530 1529 1531 1530 1528 1527 1526 1525 1519 1510 1506 1500 1494 1495 1494 1489 1489 1489 1489 1488 1484 1485 1488 1484 1482 1484 1484 1483 1482 1481 1482 1487 1489 1486 1480 1478 1480 1477 1475 1475 1472 1470 1468 1463 1461 1462 1461 1464 1466 1463 1467 1475 1473 1473 1483 1479 1465 1462 1461 1458 1467 1475 1470 1464 1465 1466 1464 1460 1461 1463 1460 1461 1471 1481 1485 1484
1547 1546 1544 1543 1542 1540 1538 1537 1535 1534 1533 1532 1531 1532 1532 1530 1528 1526 1525 1521 1511 1504 1499 1495 1495 1495 1491 1491 1492 1491 1489 1486 1486 1491 1492 1487 1486 1487 1485 1483 1485 1487 1488 1488 1487 1482 1480 1479 1477 1474 1473 1470 1466 1464 1462 1459 1459 1459 1459 1462 1463 1465 1471 1471 1471 1480 1483 1471 1462 1463 1471 1484 1483 1465 1459 1465 1466 1462 1462 1469 1475 1471 1466 1470 1477 1479 1479
1547 1546 1545 1543 1542 1541 1540 1539 1537 1536 1535 1534 1533 1535 1534 1532 1531 1529 1528 1524 1514 1504 1500 1496 1495 1496 1494 1494 1496 1494 1492 1491 1489 1491 1492 1489 1489 1490 1486 1484 1488 1490 1488 1487 1485 1482 1479 1476 1473 1469 1468 1466 1463 1460 1460 1458 1457 1456 1455 1457 1462 1465 1469 1471 1469 1476 1483 1476 1471 1484 1493 1488 1474 1461 1456 1461 1462 1460 1463 1468 1474 1479 1479 1475 1476 1481 1482
1547 1546 1545 1544 1542 1542 1541 1540 1538 1537 1537 1536 1535 1536 1536 1533 1532 1531 1530 1527 1518 1509 1505 1501 1498 1499 1499 1498 1498 1497 1494 1494 1493 1491 1490 1489 1489 1488 1485 1485 1489 1489 1487 1487 1485 1482 1479 1475 1473 1471 1466 1462 1460 1459 1457 1456 1454 1454 1453 1454 1458 1462 1466 1469 1468 1474 1487 1489 1489 1499 1497 1477 1465 1464 1462 1462 1465 1467 1472 1477 1477 1482 1487 1485 1483 1486 1486
1547 1546 1545 1544 1543 1542 1541 1540 1539 1538 1538 1537 1536 1536 1537 1534 1533 1533 1532 1529 1522 1515 1511 1508 1504 1504 1505 1503 1501 1499 1496 1493 1491 1489 1488 1488 1488 1487 1486 1487 1489 1489 1488 1487 1483 1480 1480 1479 1479 1477 1472 1469 1471 1469 1461 1454 1451 1451 1452 1451 1452 1457 1463 1468 1470 1473 1483 1492 1493 1491 1489 1481 1475 1472 1466 1465 1470 1472 1477 1487 1486 1481 1483 1486 1486 1487 1488
1547 1546 1545 1544 1543 1542 1541 1540 1540 1539 1538 1538 1537 1537 1538 1535 1534 1534 1534 1533 1528 1519 1513 1513 1513 1511 1509 1506 1503 1501 1498 1495 1493 1491 1489 1488 1488 1487 1487 1488 1490 1490 1487 1485 1482 1479 1481 1484 1486 1487 1485 1482 1482 1478 1468 1460 1452 1447 1448 1450 1450 1455 1460 1467 1475 1475 1475 1486 1492 1494 1503 1504 1491 1478 1467 1464 1468 1467 1468 1483 1491 1482 1479 1485 1486 1486 1489
1547 1546 1545 1544 1543 1542 1541 1540 1540 1539 1538 1538 1537 1537 1538 1536 1535 1534 1534 1534 1532 1523 1517 1517 1518 1514 1511 1508 1505 1504 1502 1500 1499 1497 1494 1490 1489 1487 1487 1488 1490 1489 1485 1482 1481 1480 1483 1486 1488 1489 1486 1482 1485 1486 1479 1473 1464 1452 1447 1448 1449 1453 1456 1462 1474 1479 1479 1487 1494 1500 1508 1503 1486 1475 1467 1464 1468 1465 1466 1487 1497 1484 1479 1484 1485 1485 1489
1546 1545 1544 1543 1542 1542 1541 1541 1540 1539 1539 1538 1538 1538 1538 1537 1536 1535 1534 1535 1533 1526 1520 1520 1520 1516 1513 1512 1510 1509 1508 1506 1504 1504 1501 1495 1491 1489 1489 1489 1489 1487 1485 1483 1482 1482 1485 1486 1485 1486 1484 1478 1484 1490 1483 1477 1478 1471 1461 1458 1457 1456 1457 1463 1474 1479 1479 1485 1492 1493 1493 1486 1475 1470 1467 1468 1469 1467 1480 1504 1504 1482 1477 1484 1484 1485 1489
1545 1545 1544 1543 1542 1541 1540 1540 1540 1539 1539 1539 1538 1538 1538 1538 1536 1535 1535 1535 1533 1527 1522 1522 1523 1520 1518 1518 1516 1514 1513 1510 1507 1507 1503 1497 1494 1495 1495 1492 1489 1487 1485 1484 1485 1487 1489 1487 1485 1490 1491 1482 1483 1490 1485 1480 1485 1486 1479 1475 1471 1465 1462 1466 1474 1477 1476 1481 1488 1488 1483 1475 1469 1467 1467 1468 1472 1478 1495 1509 1499 1481 1480 1484 1484 1487 1491
1545 1544 1543 1542 1542 1541 1540 1540 1540 1539 1539 1539 1539 1538 1539 1539 1537 1536 1536 1536 1534 1528 1522 1522 1525 1523 1521 1521 1519 1516 1515 1513 1510 1508 1504 1499 1498 1499 1496 1492 1492 1490 1486 1485 1487 1488 1490 1489 1484 1486 1491 1487 1485 1491 1491 1485 1485 1486 1485 1485 1482 1478 1474 1472 1474 1477 1475 1475 1481 1487 1484 1471 1463 1464 1467 1468 1479 1493 1499 1495 1487 1484 1485 1486 1488 1491 1493
1544 1543 1543 1542 1541 1541 1540 1539 1539 1539 1539 1539 1539 1538 1538 1539 1539 1537 1536 1536 1535 1529 1523 1523 1524 1523 1522 1522 1521 1519 1518 1515 1513 1512 1510 1506 1504 1501 1498 1497 1496 1494 1491 1492 1493 1490 1491 1495 1493 1491 1494 1491 1486 1489 1491 1487 1482 1481 1484 1486 1483 1482 1487 1485 1479 1476 1477 1477 1481 1491 1491 1474 1461 1465 1471 1472 1481 1490 1488 1483 1484 1485 1484 1488 1492 1492 1494
1544 1543 1542 1541 1541 1540 1540 1539 1539 1539 1538 1539 1539 1539 1538 1539 1541 1540 1537 1536 1536 1531 1525 1523 1523 1522 1522 1521 1521 1521 1520 1518 1518 1517 1514 1512 1510 1507 1506 1505 1502 1499 1498 1500 1499 1494 1492 1495 1495 1496 1497 1491 1486 1490 1495 1495 1488 1478 1477 1483 1481 1479 1487 1494 1487 1481 1485 1491 1491 1486 1478 1466 1461 1467 1474 1475 1478 1480 1479 1481 1485 1484 1484 1490 1492 1492 1498
1543 1542 1541 1541 1540 1540 1539 1539 1538 1538 1538 1538 1538 1538 1538 1539 1540 1540 1537 1535 1535 1531 1525 1522 1521 1520 1520 1519 1518 1519 1520 1519 1519 1519 1517 1515 1513 1511 1510 1506 1504 1503 1503 1504 1503 1499 1497 1496 1496 1498 1500 1496 1493 1495 1496 1498 1497 1484 1477 1483 1486 1479 1480 1488 1488 1483 1484 1488 1487 1478 1468 1463 1464 1468 1472 1474 1477 1478 1480 1483 1484 1484 1486 1489 1490 1494 1501
1542 1541 1541 1540 1539 1539 1539 1538 1538 1538 1537 1537 1537 1537 1537 1537 1537 1537 1536 1534 1533 1530 1524 1521 1520 1519 1517 1516 1516 1517 1518 1518 1518 1518 1518 1517 1514 1512 1510 1508 1507 1506 1506 1508 1508 1505 1503 1501 1499 1500 1502 1501 1501 1503 1499 1497 1497 1490 1482 1484 1483 1476 1473 1478 1481 1480 1478 1477 1475 1472 1470 1468 1469 1470 1472 1474 1475 1476 1480 1484 1484 1483 1485 1487 1490 1494 1498
1541 1540 1540 1540 1539 1538 1538 1537 1537 1537 1537 1537 1537 1536 1536 1537 1536 1536 1536 1535 1533 1529 1524 1520 1519 1518 1517 1516 1516 1517 1517 1517 1517 1516 1517 1517 1515 1512 1509 1509 1510 1509 1507 1509 1510 1508 1506 1504 1499 1499 1500 1498 1499 1504 1504 1500 1496 1490 1488 1486 1482 1476 1476 1478 1478 1480 1485 1483 1476 1470 1470 1472 1472 1473 1473 1473 1474 1477 1481 1484 1484 1484 1485 1487 1490 1494 1496
1539 1539 1539 1539 1538 1538 1537 1537 1537 1537 1536 1536 1536 1535 1536 1536 1537 1538 1537 1536 1535 1533 1528 1522 1518 1517 1517 1516 1517 1517 1516 1516 1516 1516 1515 1515 1515 1513 1510 1509 1512 1511 1510 1510 1510 1508 1508 1504 1500 1499 1499 1497 1496 1499 1501 1501 1498 1493 1493 1492 1485 1481 1481 1481 1479 1480 1483 1483 1476 1471 1472 1473 1474 1476 1476 1475 1477 1480 1483 1485 1485 1485 1488 1490 1492 1495 1496
1537 1537 1537 1537 1537 1537 1536 1536 1536 1536 1536 1535 1535 1535 1535 1535 1537 1538 1538 1537 1535 1533 1529 1523 1518 1517 1517 1516 1515 1514 1514 1515 1515 1515 1514 1514 1514 1513 1511 1511 1512 1511 1510 1510 1509 1508 1507 1503 1500 1500 1498 1496 1496 1497 1497 1497 1495 1493 1494 1491 1485 1483 1483 1481 1480 1481 1481 1478 1475 1475 1477 1477 1476 1476 1478 1479 1479 1480 1483 1486 1486 1487 1489 1491 1493 1496 1498
1535 1535 1536 1536 1536 1535 1535 1535 1535 1535 1535 1535 1534 1534 1534 1534 1535 1536 1537 1537 1535 1531 1526 1522 1519 1517 1515 1513 1512 1512 1512 1512 1512 1512 1512 1512 1512 1512 1511 1511 1511 1510 1510 1509 1508 1507 1505 1503 1500 1498 1495 1493 1494 1494 1493 1492 1491 1491 1492 1487 1483 1484 1484 1482 1484 1487 1485 1480 1475 1476 1481 1483 1480 1477 1479 1481 1481 1481 1483 1486 1487 1488 1490 1492 1494 1497 1500
1532 1533 1533 1534 1534 1534 1534 1534 1534 1534 1534 1534 1533 1533 1533 1533 1534 1535 1536 1537 1536 1533 1529 1526 1522 1519 1515 1512 1511 1511 1510 1510 1510 1510 1510 1510 1510 1510 1510 1509 1509 1509 1509 1508 1506 1504 1503 1501 1497 1493 1490 1491 1493 1492 1490 1490 1491 1492 1489 1484 1482 1483 1482 1482 1486 1487 1483 1477 1473 1473 1477 1480 1479 1478 1480 1482 1482 1482 1484 1486 1489 1491 1493 1494 1494 1496 1499
1530 1530 1531 1531 1532 1532 1533 1533 1533 1533 1533 1533 1533 1533 1532 1531 1533 1534 1535 1536 1536 1535 1533 1529 1523 1519 1515 1512 1510 1510 1509 1508 1508 1508 1507 1507 1507 1507 1507 1507 1508 1507 1507 1506 1506 1503 1501 1499 1496 1492 1490 1490 1492 1493 1493 1494 1495 1492 1486 1482 1480 1480 1479 1480 1482 1480 1477 1476 1476 1475 1476 1479 1480 1480 1482 1484 1484 1484 1485 1487 1491 1494 1496 1497 1498 1499 1500
1527 1528 1528 1529 1530 1530 1531 1532 1532 1532 1533 1533 1533 1533 1532 1531 1532 1533 1534 1535 1535 1534 1533 1530 1524 1517 1513 1510 1508 1507 1506 1506 1506 1505 1505 1505 1505 1504 1505 1505 1505 1505 1505 1504 1504 1502 1500 1498 1494 1492 1491 1489 1490 1491 1493 1494 1493 1488 1482 1480 1481 1479 1477 1478 1479 1478 1477 1477 1478 1479 1480 1482 1483 1483 1484 1485 1485 1487 1489 1490 1492 1495 1496 1496 1498 1499 1500
1525 1526 1526 1527 1528 1529 1530 1531 1531 1531 1532 1532 1533 1533 1532 1530 1530 1531 1532 1533 1534 1533 1533 1531 1525 1517 1511 1507 1503 1501 1501 1502 1503 1502 1502 1502 1501 1502 1502 1502 1502 1502 1502 1501 1501 1500 1499 1497 1494 1492 1490 1488 1488 1487 1488 1491 1493 1488 1482 1481 1481 1479 1477 1477 1478 1479 1479 1479 1482 1484 1483 1481 1480 1482 1483 1483 1484 1490 1494 1492 1491 1494 1495 1494 1495 1499 1501
1523 1523 1524 1525 1526 1527 1528 1529 1530 1530 1531 1531 1531 1531 1530 1529 1530 1531 1532 1532 1533 1533 1533 1530 1525 1518 1510 1502 1498 1498 1498 1499 1499 1499 1499 1499 1499 1498 1499 1499 1499 1499 1499 1499 1498 1496 1495 1494 1493 1491 1489 1488 1486 1484 1484 1487 1490 1488 1483 1481 1481 1480 1479 1478 1478 1479 1482 1484 1485 1484 1480 1476 1475 1477 1480 1481 1484 1490 1492 1488 1489 1494 1496 1494 1495 1500 1503
1520 1521 1522 1523 1524 1525 1527 1528 1529 1529 1529 1529 1529 1529 1529 1530 1530 1531 1532 1532 1532 1533 1532 1529 1524 1518 1511 1503 1499 1497 1497 1496 1495 1495 1495 1495 1495 1495 1495 1495 1496 1496 1495 1495 1494 1493 1492 1492 1490 1487 1487 1486 1485 1485 1484 1483 1482 1481 1481 1481 1479 1478 1478 1478 1477 1478 1481 1483 1483 1479 1475 1473 1474 1477 1479 1481 1484 1487 1488 1487 1492 1498 1499 1498 1498 1501 1503
1518 1519 1520 1521 1522 1524 1525 1526 1527 1528 1528 1528 1528 1528 1529 1530 1530 1531 1532 1532 1532 1532 1531 1529 1524 1518 1512 1506 1500 1497 1495 1493 1492 1491 1491 1491 1492 1492 1491 1491 1492 1492 1491 1490 1490 1489 1489 1488 1487 1486 1484 1481 1482 1484 1483 1479 1476 1476 1477 1477 1477 1476 1475 1475 1474 1475 1477 1479 1479 1477 1474 1473 1475 1477 1478 1479 1483 1487 1488 1490 1495 1500 1500 1499 1499 1500 1502
1515 1517 1518 1519 1521 1523 1524 1525 1526 1526 1527 1528 1527 1527 1529 1529 1529 1530 1530 1531 1532 1530 1528 1527 1524 1519 1514 1508 1500 1493 1491 1490 1489 1488 1487 1487 1487 1488 1488 1487 1487 1487 1486 1486 1486 1485 1484 1484 1485 1484 1481 1478 1479 1479 1477 1474 1472 1473 1474 1474 1474 1474 1473 1471 1471 1473 1476 1477 1477 1475 1474 1475 1477 1478 1478 1479 1483 1487 1488 1489 1494 1497 1496 1495 1497 1499 1501
1513 1515 1516 1518 1520 1521 1522 1523 1524 1525 1526 1527 1526 1527 1528 1528 1528 1529 1529 1530 1531 1529 1526 1525 1522 1517 1513 1508 1499 1492 1489 1488 1486 1486 1485 1483 1482 1484 1485 1485 1483 1481 1481 1481 1480 1479 1479 1480 1481 1479 1477 1475 1475 1472 1469 1470 1470 1471 1472 1474 1473 1474 1474 1472 1473 1477 1479 1477 1474 1473 1474 1476 1477 1478 1479 1483 1486 1487 1487 1488 1491 1493 1492 1492 1495 1498 1499
1511 1513 1515 1517 1518 1520 1520 1521 1522 1523 1525 1525 1526 1526 1527 1527 1527 1528 1528 1528 1528 1528 1527 1526 1521 1515 1512 1507 1499 1494 1492 1488 1484 1484 1484 1481 1479 1479 1480 1481 1479 1477 1477 1477 1475 1475 1475 1476 1476 1475 1473 1470 1469 1466 1466 1468 1469 1469 1471 1473 1473 1473 1474 1475 1479 1485 1484 1478 1474 1473 1475 1477 1476 1476 1480 1486 1489 1487 1487 1488 1489 1489 1490 1492 1494 1496 1498
1509 1512 1513 1515 1516 1517 1517 1518 1519 1522 1523 1524 1525 1526 1526 1526 1527 1526 1526 1526 1526 1525 1525 1524 1519 1516 1513 1508 1501 1497 1494 1490 1487 1485 1482 1480 1478 1477 1476 1477 1476 1475 1474 1472 1469 1470 1472 1471 1470 1471 1468 1465 1464 1465 1465 1466 1467 1468 1470 1472 1474 1474 1475 1477 1481 1485 1482 1476 1472 1472 1475 1479 1479 1476 1479 1486 1489 1488 1488 1490 1489 1489 1490 1492 1493 1496 1498
1508 1509 1511 1512 1513 1514 1515 1516 1518 1521 1522 1524 1525 1525 1524 1525 1525 1522 1520 1521 1521 1520 1520 1518 1515 1514 1513 1508 1502 1500 1498 1495 1493 1489 1484 1482 1481 1478 1476 1475 1473 1473 1474 1471 1465 1465 1469 1468 1466 1467 1466 1462 1461 1463 1463 1463 1465 1467 1469 1472 1474 1475 1475 1475 1476 1476 1474 1471 1470 1471 1474 1480 1483 1481 1480 1484 1489 1491 1491 1491 1490 1489 1490 1492 1493 1495 1497
1505 1506 1508 1509 1511 1513 1515 1516 1518 1520 1521 1523 1524 1524 1522 1522 1521 1517 1514 1514 1514 1513 1513 1512 1510 1509 1510 1507 1503 1500 1498 1497 1494 1491 1487 1487 1485 1483 1481 1478 1473 1471 1473 1470 1462 1460 1464 1465 1463 1463 1461 1457 1457 1459 1461 1461 1463 1465 1466 1469 1472 1473 1473 1471 1470 1470 1470 1470 1470 1472 1474 1478 1483 1485 1485 1486 1489 1491 1490 1489 1488 1489 1490 1492 1493 1495 1497
1500 1503 1505 1507 1510 1512 1515 1516 1517 1519 1521 1522 1522 1522 1520 1518 1517 1514 1511 1510 1508 1506 1505 1505 1503 1502 1503 1504 1503 1500 1497 1496 1495 1493 1490 1488 1486 1486 1486 1482 1478 1475 1472 1466 1458 1456 1458 1460 1460 1458 1455 1452 1453 1456 1457 1459 1461 1463 1464 1465 1468 1470 1471 1469 1468 1469 1470 1469 1469 1471 1473 1475 1479 1485 1488 1490 1490 1489 1488 1487 1488 1488 1490 1492 1494 1495 1497
1498 1500 1503 1506 1509 1512 1514 1515 1517 1518 1520 1520 1521 1519 1516 1513 1511 1510 1508 1506 1503 1500 1498 1498 1497 1496 1496 1497 1498 1497 1496 1495 1494 1493 1491 1487 1485 1486 1485 1482 1481 1480 1473 1462 1455 1454 1456 1458 1458 1454 1449 1448 1451 1453 1454 1456 1459 1461 1462 1463 1465 1467 1469 1468 1468 1471 1472 1470 1469 1469 1471 1473 1476 1480 1485 1487 1488 1486 1486 1486 1486 1487 1489 1491 1493 1495 1497
1499 1501 1503 1506 1508 1510 1512 1514 1515 1516 1517 1518 1519 1518 1514 1508 1505 1504 1503 1501 1499 1497 1494 1492 1491 1491 1491 1491 1491 1491 1493 1493 1492 1490 1489 1486 1484 1485 1485 1483 1482 1478 1470 1461 1456 1455 1454 1454 1454 1450 1446 1447 1449 1451 1452 1455 1457 1458 1459 1461 1463 1464 1466 1466 1466 1468 1471 1471 1470 1468 1470 1472 1475 1477 1480 1482 1483 1483 1484 1485 1485 1487 1489 1491 1493 1495 1498
1499 1501 1503 1505 1507 1509 1511 1513 1513 1514 1514 1513 1513 1511 1508 1502 1499 1497 1496 1494 1493 1493 1491 1490 1489 1488 1487 1487 1488 1488 1489 1490 1489 1488 1487 1484 1483 1484 1485 1482 1477 1472 1469 1466 1462 1457 1451 1447 1445 1444 1444 1445 1446 1447 1450 1452 1454 1455 1457 1458 1460 1463 1464 1465 1466 1468 1470 1471 1470 1469 1469 1471 1473 1475 1477 1478 1479 1480 1482 1483 1485 1487 1489 1491 1493 1496 1498
1497 1500 1503 1505 1508 1509 1510 1511 1512 1510 1508 1505 1503 1500 1497 1494 1492 1491 1490 1490 1490 1489 1488 1488 1488 1487 1486 1486 1487 1486 1486 1487 1488 1486 1484 1483 1482 1482 1480 1477 1472 1469 1469 1469 1465 1461 1455 1447 1441 1441 1444 1445 1444 1445 1447 1449 1450 1452 1454 1456 1458 1461 1462 1462 1464 1467 1469 1470 1469 1469 1469 1470 1471 1473 1475 1475 1476 1477 1479 1481 1483 1486 1488 1491 1493 1495 1498
1496 1497 1500 1503 1507 1508 1507 1507 1507 1504 1499 1496 1495 1493 1490 1489 1488 1487 1487 1488 1488 1487 1486 1486 1486 1487 1487 1486 1485 1484 1484 1485 1486 1483 1482 1482 1482 1479 1475 1474 1474 1473 1472 1470 1466 1462 1456 1448 1441 1440 1443 1444 1444 1445 1447 1448 1448 1450 1452 1454 1456 1458 1459 1460 1460 1463 1466 1468 1468 1469 1469 1468 1469 1471 1472 1473 1474 1475 1477 1479 1481 1484 1487 1489 1492 1495 1498
1495 1497 1498 1500 1503 1504 1501 1499 1497 1494 1491 1490 1489 1488 1487 1487 1486 1485 1485 1486 1486 1485 1486 1486 1487 1487 1486 1485 1484 1484 1483 1483 1483 1481 1480 1480 1478 1475 1472 1472 1473 1472 1471 1470 1465 1458 1452 1446 1442 1440 1441 1443 1444 1445 1446 1447 1449 1450 1451 1453 1455 1456 1458 1458 1459 1461 1464 1466 1466 1467 1468 1468 1468 1469 1470 1471 1472 1474 1476 1478 1480 1483 1486 1488 1491 1494 1497
1495 1496 1497 1497 1497 1496 1494 1491 1489 1488 1486 1486 1487 1487 1487 1486 1485 1483 1483 1484 1485 1485 1486 1486 1486 1487 1486 1485 1484 1483 1483 1483 1482 1479 1476 1476 1475 1474 1474 1474 1471 1465 1462 1461 1458 1453 1448 1446 1445 1444 1443 1443 1445 1446 1447 1448 1449 1450 1452 1454 1455 1455 1456 1458 1459 1460 1463 1464 1464 1465 1467 1467 1468 1468 1469 1470 1472 1474 1475 1477 1480 1483 1485 1488 1491 1494 1497
1493 1494 1494 1492 1489 1486 1486 1487 1486 1484 1483 1484 1486 1486 1486 1484 1482 1481 1482 1483 1483 1484 1485 1485 1486 1487 1486 1485 1483 1482 1482 1483 1481 1477 1474 1474 1474 1471 1470 1471 1469 1462 1456 1453 1452 1450 1448 1448 1448 1447 1445 1445 1445 1446 1446 1448 1449 1451 1453 1455 1455 1455 1455 1457 1457 1459 1460 1462 1462 1463 1465 1466 1467 1468 1468 1469 1470 1472 1474 1477 1480 1482 1484 1487 1490 1493 1496
1492 1491 1491 1489 1485 1482 1484 1486 1485 1481 1480 1482 1484 1483 1481 1479 1477 1477 1479 1480 1481 1482 1483 1484 1485 1485 1485 1485 1484 1482 1480 1479 1478 1476 1474 1472 1469 1466 1464 1463 1461 1456 1451 1449 1448 1449 1449 1449 1450 1449 1448 1446 1446 1445 1446 1447 1448 1450 1452 1453 1453 1453 1454 1456 1457 1458 1459 1460 1460 1461 1464 1466 1468 1468 1468 1468 1469 1471 1474 1477 1479 1481 1483 1486 1489 1492 1495
1491 1490 1487 1485 1484 1483 1484 1485 1483 1480 1479 1480 1479 1478 1477 1476 1475 1475 1477 1478 1479 1480 1480 1481 1481 1482 1483 1484 1484 1482 1477 1474 1474 1475 1473 1468 1463 1461 1460 1457 1452 1449 1447 1446 1446 1448 1450 1450 1450 1450 1450 1449 1448 1447 1446 1447 1448 1448 1449 1450 1451 1452 1453 1455 1456 1458 1459 1460 1461 1463 1465 1468 1470 1469 1468 1468 1469 1471 1474 1476 1478 1480 1482 1486 1489 1492 1495
1489 1487 1484 1483 1482 1482 1481 1481 1481 1481 1480 1478 1476 1476 1476 1475 1474 1475 1476 1477 1477 1478 1478 1478 1478 1479 1479 1479 1477 1476 1475 1473 1472 1471 1468 1463 1459 1457 1455 1451 1448 1447 1446 1445 1445 1447 1449 1449 1449 1450 1450 1450 1449 1449 1448 1448 1447 1447 1447 1448 1449 1450 1452 1453 1455 1457 1458 1460 1461 1464 1466 1469 1469 1468 1466 1466 1467 1469 1472 1474 1477 1479 1482 1485 1488 1492 1495